Location: Amarillo Post Office Jordan Station
(35.1907°N, 101.9342°W)
Time: 13:29:09
(UTC+00:00)

SMAP - Pass Details

Date: 24 January 2021
Orbit: 682 x 683 km, 98.1° (Epoch: 03 March)

Event Time Altitude Azimuth Distance (km) Brightness Sun altitude
Rises 12:55:03 0° 14° (NNE) 3,049 6.4 -11.8°
Reaches altitude 10° 12:57:18 10° 16° (NNE) 2,130 5.6 -11.4°
Maximum altitude 13:01:58 74° 102° (ESE) 711 3.3 -10.4°
Drops below altitude 10° 13:06:35 10° 187° (S) 2,115 5.7 -9.5°
Sets 13:08:49 0° 189° (S) 3,026 6.5 -9.1°
